Location: Chandrammap?lem
(16.9200°N, 81.0051°E)
Time: 21:08:06
(UTC+00:00)

Cosmos 2034 Rocket - Pass Details

Date: 29 May 2024
Orbit: 958 x 1000 km, 82.9° (Epoch: 14 June)

Event Time Altitude Azimuth Distance (km) Brightness Sun altitude
Rises 14:50:02 0° 349° (N) 3,678 7.7 -23.0°
Reaches altitude 10° 14:52:34 10° 346° (NNW) 2,735 7.0 -23.5°
Maximum altitude 14:58:44 60° 268° (W) 1,121 4.4 -24.7°
Enters shadow 15:03:03 21° 194° (SSW) 2,087 5.5 -25.6°
